Weather History for KVNY - November, 2012

Change the Weather History Date:

Thursday, November 1, 2012

  Actual Average Record
Temperature  
Mean Temperature 62 °F -  
Max Temperature 72 °F 72 °F 100 °F (1997)
Min Temperature 53 °F 49 °F 42 °F (1996)
Degree Days  
Heating Degree Days 3    
Growing Degree Days 12 (Base 50)    
Moisture  
Dew Point 50 °F    
Average Humidity 80    
Maximum Humidity 96    
Minimum Humidity 42    
Precipitation  
Precipitation 0.00 in - - ()
Sea Level Pressure  
Sea Level Pressure 29.99 in    
Wind  
Wind Speed 1 mph (SSE)    
Max Wind Speed 7 mph    
Max Gust Speed -    
Visibility 5 miles    
Events Fog    
Averages and records for this station are not official NWS values.
T = Trace of Precipitation, MM = Missing Value Source: NWS Daily Summary

Daily Weather History Graph

Daily Weather History Graph

Search for Another Location

Airport or City:

Trip Planner

Search our weather history database for the weather conditions in past years. The results will help you decide how hot, cold, wet, or windy it might be!

Date:

Astronomy

Nov. 01, 2012 Rise Set
Actual Time 7:14 AM PDT 6:00 PM PDT
Civil Twilight 6:48 AM PDT 6:26 PM PDT
Nautical Twilight 6:18 AM PDT 6:55 PM PDT
Astronomical Twilight 5:49 AM PDT 7:25 PM PDT
Moon 8:06 PM PDT (11/1) 9:45 AM PDT (11/1)
Length of Visible Light 11h 37m
Length of Day
10h 45m
Waning Gibbous, 92% of the Moon is Illuminated
Nov 1
Waning Gibbous
Nov 6
Last Quarter
Nov 13
New
Nov 20
First Quarter
Nov 28
Full

Hourly Weather History & Observations

Time (PDT) Temp. Dew Point Humidity Pressure Visibility Wind Dir Wind Speed Gust Speed Precip Events Conditions
12:51 AM 55.0 °F 52.0 °F 89% 29.99 in 4.0 mi Calm Calm - N/A   Clear
1:51 AM 54.0 °F 51.1 °F 90% 29.99 in 4.0 mi Calm Calm - N/A   Clear
2:51 AM 53.1 °F 48.9 °F 86% 29.99 in 5.0 mi Calm Calm - N/A   Clear
3:15 AM 53.6 °F 48.2 °F 82% 30.00 in 6.0 mi Calm Calm - N/A   Scattered Clouds
3:24 AM 53.6 °F 50.0 °F 88% 30.00 in 6.0 mi Calm Calm - N/A   Mostly Cloudy
3:51 AM 53.1 °F 50.0 °F 89% 29.98 in 5.0 mi Calm Calm - N/A   Overcast
4:15 AM 53.6 °F 51.8 °F 94% 29.99 in 1.8 mi Calm Calm - N/A   Overcast
4:37 AM 53.6 °F 51.8 °F 94% 29.99 in 3.0 mi Calm Calm - N/A   Overcast
4:51 AM 53.1 °F 51.1 °F 93% 29.98 in 3.0 mi Calm Calm - N/A   Overcast
5:05 AM 53.6 °F 51.8 °F 94% 30.00 in 2.0 mi SSW 3.5 mph - N/A   Overcast
5:31 AM 53.6 °F 51.8 °F 94% 30.00 in 1.0 mi Calm Calm - N/A   Overcast
5:45 AM 53.6 °F 51.8 °F 94% 30.00 in 0.5 mi Calm Calm - N/A Fog Fog
5:51 AM 53.1 °F 52.0 °F 96% 29.99 in 1.0 mi Calm Calm - N/A   Overcast
6:51 AM 53.1 °F 52.0 °F 96% 29.99 in 2.5 mi Calm Calm - N/A   Overcast
7:05 AM 53.6 °F 51.8 °F 94% 30.00 in 3.0 mi Calm Calm - N/A   Overcast
7:25 AM 53.6 °F 51.8 °F 94% 30.01 in 3.0 mi Calm Calm - N/A   Overcast
7:51 AM 54.0 °F 52.0 °F 93% 30.00 in 3.0 mi SSE 3.5 mph - N/A   Overcast
8:31 AM 53.6 °F 51.8 °F 94% 30.02 in 3.0 mi Variable 4.6 mph - N/A   Overcast
8:51 AM 54.0 °F 51.1 °F 90% 30.01 in 3.0 mi Calm Calm - N/A   Overcast
9:51 AM 55.0 °F 50.0 °F 83% 30.03 in 3.0 mi Calm Calm - N/A   Haze
10:03 AM 55.4 °F 50.0 °F 82% 30.04 in 3.0 mi NW 3.5 mph - N/A   Haze
10:51 AM 55.9 °F 50.0 °F 80% 30.03 in 3.0 mi NW 3.5 mph - N/A   Haze
11:34 AM 59.0 °F 48.2 °F 67% 30.02 in 4.0 mi Calm Calm - N/A   Haze
11:51 AM 61.0 °F 48.9 °F 64% 30.01 in 5.0 mi ESE 3.5 mph - N/A   Haze
12:51 PM 64.9 °F 48.0 °F 54% 29.98 in 5.0 mi Calm Calm - N/A   Haze
1:51 PM 68.0 °F 48.0 °F 49% 29.95 in 7.0 mi Calm Calm - N/A   Clear
2:51 PM 71.1 °F 46.9 °F 42% 29.94 in 7.0 mi ESE 3.5 mph - N/A   Clear
3:51 PM 70.0 °F 48.9 °F 47% 29.93 in 8.0 mi SE 6.9 mph - N/A   Partly Cloudy
4:51 PM 68.0 °F 48.9 °F 50% 29.93 in 9.0 mi SSE 6.9 mph - N/A   Scattered Clouds
5:51 PM 63.0 °F 48.9 °F 60% 29.94 in 10.0 mi South 6.9 mph - N/A   Scattered Clouds
6:51 PM 61.0 °F 50.0 °F 67% 29.94 in 10.0 mi SE 5.8 mph - N/A   Scattered Clouds
7:51 PM 60.1 °F 48.9 °F 67% 29.96 in 10.0 mi Calm Calm - N/A   Partly Cloudy
8:51 PM 57.9 °F 48.9 °F 72% 29.97 in 10.0 mi Calm Calm - N/A   Partly Cloudy
9:51 PM 55.9 °F 50.0 °F 80% 29.98 in 10.0 mi Calm Calm - N/A   Partly Cloudy
10:51 PM 55.9 °F 50.0 °F 80% 29.98 in 10.0 mi Calm Calm - N/A   Partly Cloudy
11:51 PM 55.0 °F 50.0 °F 83% 29.97 in 9.0 mi Calm Calm - N/A   Clear